Time,TemperatureF,DewpointF,PressureIn,WindDirection,WindDirectionDegrees,WindSpeedMPH,WindSpeedGustMPH,Humidity,HourlyPrecipIn,Conditions,Clouds,dailyrainin,SoftwareType,DateUTC
2013-03-04 00:01:00,53.4,38.6,29.90,West,260,10.0,17.0,57,0.00,,---,0.00,VWS V14.01,2013-03-04 08:01:00,
2013-03-04 00:06:00,53.4,38.6,29.90,West,271,7.0,17.0,57,0.00,,---,0.00,VWS V14.01,2013-03-04 08:06:00,
2013-03-04 00:11:00,53.5,38.7,29.91,WSW,249,6.0,17.0,57,0.00,,---,0.00,VWS V14.01,2013-03-04 08:11:00,
2013-03-04 00:17:00,53.4,38.6,29.91,WSW,253,7.0,17.0,57,0.00,,---,0.00,VWS V14.01,2013-03-04 08:17:00,
2013-03-04 00:22:00,53.3,38.9,29.91,West,266,5.0,17.0,58,0.00,,---,0.00,VWS V14.01,2013-03-04 08:22:00,
2013-03-04 00:27:00,53.3,38.9,29.91,West,273,8.0,17.0,58,0.00,,---,0.00,VWS V14.01,2013-03-04 08:27:00,
2013-03-04 00:32:00,53.3,38.9,29.91,West,264,4.0,17.0,58,0.00,,---,0.00,VWS V14.01,2013-03-04 08:32:00,
2013-03-04 00:37:00,53.3,38.9,29.92,West,278,5.0,17.0,58,0.00,,---,0.00,VWS V14.01,2013-03-04 08:37:00,
2013-03-04 00:42:00,53.2,38.8,29.92,WNW,291,6.0,17.0,58,0.00,,---,0.00,VWS V14.01,2013-03-04 08:42:00,
2013-03-04 00:47:00,53.2,38.8,29.92,WSW,255,11.0,18.0,58,0.00,,---,0.00,VWS V14.01,2013-03-04 08:47:00,
2013-03-04 00:52:00,53.5,39.1,29.91,West,271,14.0,20.0,58,0.00,,---,0.00,VWS V14.01,2013-03-04 08:52:00,
2013-03-04 00:57:00,53.4,39.0,29.91,West,266,7.0,20.0,58,0.00,,---,0.00,VWS V14.01,2013-03-04 08:57:00,
2013-03-04 01:02:00,53.2,39.3,29.92,WNW,297,7.0,12.0,59,0.00,,---,0.00,VWS V14.01,2013-03-04 09:02:00,
2013-03-04 01:07:00,53.1,39.2,29.92,WNW,285,5.0,16.0,59,0.00,,---,0.00,VWS V14.01,2013-03-04 09:07:00,
2013-03-04 01:12:00,53.0,39.5,29.92,WNW,300,13.0,16.0,60,0.00,,---,0.00,VWS V14.01,2013-03-04 09:12:00,
2013-03-04 01:17:00,53.0,39.5,29.92,WSW,256,8.0,16.0,60,0.00,,---,0.00,VWS V14.01,2013-03-04 09:17:00,
2013-03-04 01:22:00,53.0,39.5,29.92,WNW,283,13.0,16.0,60,0.00,,---,0.00,VWS V14.01,2013-03-04 09:22:00,
2013-03-04 01:27:00,52.9,39.4,29.92,West,271,10.0,17.0,60,0.00,,---,0.00,VWS V14.01,2013-03-04 09:27:00,
2013-03-04 01:32:00,52.9,39.4,29.92,West,280,10.0,18.0,60,0.00,,---,0.00,VWS V14.01,2013-03-04 09:32:00,
2013-03-04 01:37:00,52.9,39.4,29.92,West,277,9.0,18.0,60,0.00,,---,0.00,VWS V14.01,2013-03-04 09:37:00,
2013-03-04 01:42:00,52.9,39.4,29.92,West,274,7.0,18.0,60,0.00,,---,0.00,VWS V14.01,2013-03-04 09:42:00,
2013-03-04 01:47:00,52.9,39.4,29.92,West,274,4.0,18.0,60,0.00,,---,0.00,VWS V14.01,2013-03-04 09:47:00,
2013-03-04 01:52:00,52.8,39.7,29.92,WSW,253,10.0,18.0,61,0.00,,---,0.00,VWS V14.01,2013-03-04 09:52:00,
2013-03-04 01:57:00,52.6,40.0,29.93,WNW,287,8.0,18.0,62,0.00,,---,0.00,VWS V14.01,2013-03-04 09:57:00,
2013-03-04 02:02:00,52.4,40.2,29.93,NW,308,17.0,17.0,63,0.00,,---,0.00,VWS V14.01,2013-03-04 10:02:00,
2013-03-04 02:07:00,52.4,40.2,29.93,West,266,5.0,17.0,63,0.00,,---,0.00,VWS V14.01,2013-03-04 10:07:00,
2013-03-04 02:12:00,52.2,40.0,29.93,WSW,238,8.0,17.0,63,0.00,,---,0.00,VWS V14.01,2013-03-04 10:12:00,
2013-03-04 02:17:00,52.4,40.2,29.93,West,259,9.0,17.0,63,0.00,,---,0.00,VWS V14.01,2013-03-04 10:17:00,
2013-03-04 02:22:00,52.3,40.1,29.93,West,260,9.0,17.0,63,0.00,,---,0.00,VWS V14.01,2013-03-04 10:22:00,
2013-03-04 02:27:00,52.3,39.7,29.93,WNW,284,6.0,17.0,62,0.00,,---,0.00,VWS V14.01,2013-03-04 10:27:00,
2013-03-04 02:32:00,52.2,39.6,29.92,WSW,250,7.0,17.0,62,0.00,,---,0.00,VWS V14.01,2013-03-04 10:32:00,
2013-03-04 02:37:00,52.2,39.6,29.93,West,266,4.0,17.0,62,0.00,,---,0.00,VWS V14.01,2013-03-04 10:37:00,
2013-03-04 02:42:00,52.1,39.5,29.93,WNW,285,9.0,17.0,62,0.00,,---,0.00,VWS V14.01,2013-03-04 10:42:00,
2013-03-04 02:47:00,52.0,39.4,29.92,NW,310,10.0,17.0,62,0.00,,---,0.00,VWS V14.01,2013-03-04 10:47:00,
2013-03-04 02:52:00,52.1,39.5,29.92,WNW,283,8.0,17.0,62,0.00,,---,0.00,VWS V14.01,2013-03-04 10:52:00,
2013-03-04 02:57:00,52.0,39.4,29.92,West,264,10.0,17.0,62,0.00,,---,0.00,VWS V14.01,2013-03-04 10:57:00,
2013-03-04 03:02:00,51.9,39.3,29.92,West,281,10.0,11.0,62,0.00,,---,0.00,VWS V14.01,2013-03-04 11:02:00,
2013-03-04 03:07:00,51.7,39.1,29.92,NW,305,11.0,12.0,62,0.00,,---,0.00,VWS V14.01,2013-03-04 11:07:00,
2013-03-04 03:12:00,51.7,39.1,29.92,WNW,287,7.0,13.0,62,0.00,,---,0.00,VWS V14.01,2013-03-04 11:12:00,
2013-03-04 03:17:00,51.5,39.3,29.93,WSW,253,4.0,13.0,63,0.00,,---,0.00,VWS V14.01,2013-03-04 11:17:00,
2013-03-04 03:22:00,51.4,39.2,29.93,West,264,4.0,15.0,63,0.00,,---,0.00,VWS V14.01,2013-03-04 11:22:00,
2013-03-04 03:27:00,51.3,39.2,29.93,West,278,10.0,15.0,63,0.00,,---,0.00,VWS V14.01,2013-03-04 11:27:00,
2013-03-04 03:32:00,51.3,39.5,29.93,WNW,300,11.0,15.0,64,0.00,,---,0.00,VWS V14.01,2013-03-04 11:32:00,
2013-03-04 03:37:00,51.3,39.5,29.93,West,260,5.0,15.0,64,0.00,,---,0.00,VWS V14.01,2013-03-04 11:37:00,
2013-03-04 03:42:00,51.2,39.5,29.93,WNW,283,3.0,15.0,64,0.00,,---,0.00,VWS V14.01,2013-03-04 11:42:00,
2013-03-04 03:48:00,51.0,39.3,29.93,WNW,294,4.0,15.0,64,0.00,,---,0.00,VWS V14.01,2013-03-04 11:48:00,
2013-03-04 03:53:00,50.8,39.1,29.94,West,263,6.0,15.0,64,0.00,,---,0.00,VWS V14.01,2013-03-04 11:53:00,
2013-03-04 03:58:00,50.7,39.4,29.94,WSW,255,9.0,15.0,65,0.00,,---,0.00,VWS V14.01,2013-03-04 11:58:00,
2013-03-04 04:03:00,50.9,39.2,29.94,WNW,291,7.0,10.0,64,0.00,,---,0.00,VWS V14.01,2013-03-04 12:03:00,
2013-03-04 04:08:00,50.8,39.1,29.94,WSW,255,5.0,10.0,64,0.00,,---,0.00,VWS V14.01,2013-03-04 12:08:00,
2013-03-04 04:13:00,50.9,39.6,29.94,WNW,291,5.0,16.0,65,0.00,,---,0.00,VWS V14.01,2013-03-04 12:13:00,
2013-03-04 04:18:00,50.9,39.6,29.94,WNW,283,6.0,16.0,65,0.00,,---,0.00,VWS V14.01,2013-03-04 12:18:00,
2013-03-04 04:23:00,50.8,39.5,29.94,West,281,8.0,16.0,65,0.00,,---,0.00,VWS V14.01,2013-03-04 12:23:00,
2013-03-04 04:28:00,50.8,39.5,29.94,WNW,287,4.0,16.0,65,0.00,,---,0.00,VWS V14.01,2013-03-04 12:28:00,
2013-03-04 04:33:00,50.9,39.2,29.94,WNW,283,11.0,16.0,64,0.00,,---,0.00,VWS V14.01,2013-03-04 12:33:00,
2013-03-04 04:38:00,50.8,39.1,29.94,West,271,3.0,16.0,64,0.00,,---,0.00,VWS V14.01,2013-03-04 12:38:00,
2013-03-04 04:43:00,50.8,39.1,29.95,WNW,303,4.0,16.0,64,0.00,,---,0.00,VWS V14.01,2013-03-04 12:43:00,
2013-03-04 04:48:00,50.7,39.0,29.95,West,281,7.0,16.0,64,0.00,,---,0.00,VWS V14.01,2013-03-04 12:48:00,
2013-03-04 04:53:00,50.7,39.0,29.95,West,274,3.0,16.0,64,0.00,,---,0.00,VWS V14.01,2013-03-04 12:53:00,
2013-03-04 04:58:00,50.7,38.6,29.95,WNW,297,3.0,16.0,63,0.00,,---,0.00,VWS V14.01,2013-03-04 12:58:00,
2013-03-04 05:03:00,50.6,38.5,29.95,WNW,297,3.0,7.0,63,0.00,,---,0.00,VWS V14.01,2013-03-04 13:03:00,
2013-03-04 05:08:00,50.4,38.7,29.95,West,280,2.0,7.0,64,0.00,,---,0.00,VWS V14.01,2013-03-04 13:08:00,
2013-03-04 05:13:00,50.2,38.5,29.95,West,281,1.0,7.0,64,0.00,,---,0.00,VWS V14.01,2013-03-04 13:13:00,
2013-03-04 05:18:00,50.0,38.3,29.95,WNW,301,4.0,7.0,64,0.00,,---,0.00,VWS V14.01,2013-03-04 13:18:00,
2013-03-04 05:23:00,49.7,38.0,29.95,WNW,287,4.0,7.0,64,0.00,,---,0.00,VWS V14.01,2013-03-04 13:23:00,
2013-03-04 05:28:00,49.6,37.9,29.96,WNW,286,2.0,7.0,64,0.00,,---,0.00,VWS V14.01,2013-03-04 13:28:00,
2013-03-04 05:33:00,49.6,37.9,29.96,West,274,2.0,7.0,64,0.00,,---,0.00,VWS V14.01,2013-03-04 13:33:00,
2013-03-04 05:38:00,49.6,37.9,29.96,WNW,287,3.0,7.0,64,0.00,,---,0.00,VWS V14.01,2013-03-04 13:38:00,
2013-03-04 05:43:00,49.5,38.2,29.97,West,281,2.0,7.0,65,0.00,,---,0.00,VWS V14.01,2013-03-04 13:43:00,
2013-03-04 05:48:00,49.5,38.2,29.97,WNW,301,2.0,7.0,65,0.00,,---,0.00,VWS V14.01,2013-03-04 13:48:00,
2013-03-04 05:53:00,49.1,37.9,29.96,West,277,0.0,7.0,65,0.00,,---,0.00,VWS V14.01,2013-03-04 13:53:00,
2013-03-04 05:58:00,48.9,38.1,29.97,West,267,0.0,7.0,66,0.00,,---,0.00,VWS V14.01,2013-03-04 13:58:00,
2013-03-04 06:03:00,48.7,37.9,29.97,West,262,2.0,3.0,66,0.00,,---,0.00,VWS V14.01,2013-03-04 14:03:00,
2013-03-04 06:08:00,48.5,38.1,29.96,WSW,249,2.0,3.0,67,0.00,,---,0.00,VWS V14.01,2013-03-04 14:08:00,
2013-03-04 06:13:00,48.5,38.1,29.96,SW,236,0.0,3.0,67,0.00,,---,0.00,VWS V14.01,2013-03-04 14:13:00,
2013-03-04 06:18:00,48.2,37.8,29.96,SW,233,0.0,3.0,67,0.00,,---,0.00,VWS V14.01,2013-03-04 14:18:00,
2013-03-04 06:23:00,48.0,38.0,29.97,SE,124,2.0,3.0,68,0.00,,---,0.00,VWS V14.01,2013-03-04 14:23:00,
2013-03-04 06:28:00,47.7,37.7,29.96,SSE,160,0.0,3.0,68,0.00,,---,0.00,VWS V14.01,2013-03-04 14:28:00,
2013-03-04 06:33:00,48.1,38.0,29.97,WSW,239,0.0,3.0,68,0.00,,---,0.00,VWS V14.01,2013-03-04 14:33:00,
2013-03-04 06:38:00,49.1,37.9,29.96,WSW,243,2.0,3.0,65,0.00,,---,0.00,VWS V14.01,2013-03-04 14:38:00,
2013-03-04 06:43:00,49.4,37.8,29.97,SSE,150,1.0,3.0,64,0.00,,---,0.00,VWS V14.01,2013-03-04 14:43:00,
2013-03-04 06:48:00,49.7,38.0,29.97,SE,131,0.0,3.0,64,0.00,,---,0.00,VWS V14.01,2013-03-04 14:48:00,
2013-03-04 06:53:00,50.2,38.1,29.98,SE,131,0.0,3.0,63,0.00,,---,0.00,VWS V14.01,2013-03-04 14:53:00,
2013-03-04 06:58:00,49.9,37.8,29.98,WNW,286,1.0,3.0,63,0.00,,---,0.00,VWS V14.01,2013-03-04 14:58:00,
2013-03-04 07:03:00,49.9,37.8,29.98,West,274,0.0,0.0,63,0.00,,---,0.00,VWS V14.01,2013-03-04 15:03:00,
2013-03-04 07:08:00,50.3,38.2,29.99,SW,222,0.0,1.0,63,0.00,,---,0.00,VWS V14.01,2013-03-04 15:08:00,
2013-03-04 07:13:00,50.6,38.1,29.99,WSW,253,1.0,5.0,62,0.00,,---,0.00,VWS V14.01,2013-03-04 15:13:00,
2013-03-04 07:18:00,51.0,38.5,30.00,West,274,0.0,5.0,62,0.00,,---,0.00,VWS V14.01,2013-03-04 15:18:00,
2013-03-04 07:23:00,51.5,38.5,29.99,WSW,253,2.0,8.0,61,0.00,,---,0.00,VWS V14.01,2013-03-04 15:23:00,
2013-03-04 07:28:00,52.0,39.0,30.00,SW,229,0.0,8.0,61,0.00,,---,0.00,VWS V14.01,2013-03-04 15:28:00,
2013-03-04 07:33:00,52.4,38.9,30.00,West,267,5.0,8.0,60,0.00,,---,0.00,VWS V14.01,2013-03-04 15:33:00,
2013-03-04 07:38:00,53.0,39.1,30.00,WNW,288,4.0,8.0,59,0.00,,---,0.00,VWS V14.01,2013-03-04 15:38:00,
2013-03-04 07:43:00,53.4,39.0,30.01,WNW,288,5.0,8.0,58,0.00,,---,0.00,VWS V14.01,2013-03-04 15:43:00,
2013-03-04 07:48:00,53.8,38.9,30.01,WNW,294,9.0,10.0,57,0.00,,---,0.00,VWS V14.01,2013-03-04 15:48:00,
2013-03-04 07:53:00,54.0,39.1,30.00,WNW,288,5.0,13.0,57,0.00,,---,0.00,VWS V14.01,2013-03-04 15:53:00,
2013-03-04 07:58:00,54.3,39.0,30.00,WNW,287,4.0,13.0,56,0.00,,---,0.00,VWS V14.01,2013-03-04 15:58:00,
2013-03-04 08:03:00,54.6,39.2,30.01,NW,305,6.0,12.0,56,0.00,,---,0.00,VWS V14.01,2013-03-04 16:03:00,
2013-03-04 08:08:00,54.8,39.4,30.01,WNW,297,12.0,12.0,56,0.00,,---,0.00,VWS V14.01,2013-03-04 16:08:00,
2013-03-04 08:13:00,55.1,39.2,30.01,WNW,287,5.0,12.0,55,0.00,,---,0.00,VWS V14.01,2013-03-04 16:13:00,
2013-03-04 08:18:00,55.4,39.5,30.01,West,259,5.0,12.0,55,0.00,,---,0.00,VWS V14.01,2013-03-04 16:18:00,
2013-03-04 08:23:00,55.5,39.6,30.01,WNW,294,6.0,12.0,55,0.00,,---,0.00,VWS V14.01,2013-03-04 16:23:00,
2013-03-04 08:28:00,55.8,39.4,30.01,WNW,287,11.0,14.0,54,0.00,,---,0.00,VWS V14.01,2013-03-04 16:28:00,
2013-03-04 08:33:00,55.9,39.5,30.01,WNW,284,5.0,14.0,54,0.00,,---,0.00,VWS V14.01,2013-03-04 16:33:00,
2013-03-04 08:38:00,56.2,39.3,30.01,WNW,302,8.0,14.0,53,0.00,,---,0.00,VWS V14.01,2013-03-04 16:38:00,
2013-03-04 08:43:00,56.4,39.5,30.01,WNW,293,6.0,14.0,53,0.00,,---,0.00,VWS V14.01,2013-03-04 16:43:00,
2013-03-04 08:49:00,56.6,39.2,30.01,WNW,285,9.0,14.0,52,0.00,,---,0.00,VWS V14.01,2013-03-04 16:49:00,
2013-03-04 08:54:00,57.0,39.6,30.01,West,277,6.0,14.0,52,0.00,,---,0.00,VWS V14.01,2013-03-04 16:54:00,
2013-03-04 08:59:00,57.1,38.7,30.01,West,275,6.0,14.0,50,0.00,,---,0.00,VWS V14.01,2013-03-04 16:59:00,
2013-03-04 09:04:00,57.2,38.8,30.01,WNW,284,3.0,9.0,50,0.00,,---,0.00,VWS V14.01,2013-03-04 17:04:00,
2013-03-04 09:09:00,57.6,38.6,30.01,NW,305,6.0,9.0,49,0.00,,---,0.00,VWS V14.01,2013-03-04 17:09:00,
2013-03-04 09:14:00,57.8,38.3,30.01,North,353,3.0,9.0,48,0.00,,---,0.00,VWS V14.01,2013-03-04 17:14:00,
2013-03-04 09:19:00,58.2,38.6,30.01,NNE,14,8.0,9.0,48,0.00,,---,0.00,VWS V14.01,2013-03-04 17:19:00,
2013-03-04 09:24:00,58.5,38.4,30.01,West,277,4.0,9.0,47,0.00,,---,0.00,VWS V14.01,2013-03-04 17:24:00,
2013-03-04 09:29:00,58.9,38.2,30.01,WNW,300,3.0,9.0,46,0.00,,---,0.00,VWS V14.01,2013-03-04 17:29:00,
2013-03-04 09:34:00,58.7,38.0,30.01,SSE,148,0.0,9.0,46,0.00,,---,0.00,VWS V14.01,2013-03-04 17:34:00,
2013-03-04 09:39:00,59.1,37.8,30.01,WNW,294,5.0,9.0,45,0.00,,---,0.00,VWS V14.01,2013-03-04 17:39:00,
2013-03-04 09:44:00,59.3,38.0,30.01,West,273,2.0,9.0,45,0.00,,---,0.00,VWS V14.01,2013-03-04 17:44:00,
2013-03-04 09:49:00,59.6,37.7,30.00,ESE,108,1.0,9.0,44,0.00,,---,0.00,VWS V14.01,2013-03-04 17:49:00,
2013-03-04 09:54:00,60.1,37.5,30.00,NNW,345,4.0,9.0,43,0.00,,---,0.00,VWS V14.01,2013-03-04 17:54:00,
2013-03-04 09:59:00,59.7,37.2,30.01,NW,307,2.0,9.0,43,0.00,,---,0.00,VWS V14.01,2013-03-04 17:59:00,
2013-03-04 10:04:00,60.3,37.7,30.01,NW,308,2.0,3.0,43,0.00,,---,0.00,VWS V14.01,2013-03-04 18:04:00,
2013-03-04 10:09:00,60.6,36.8,30.01,NNW,340,5.0,8.0,41,0.00,,---,0.00,VWS V14.01,2013-03-04 18:09:00,
2013-03-04 10:14:00,60.7,36.9,30.01,NE,54,2.0,10.0,41,0.00,,---,0.00,VWS V14.01,2013-03-04 18:14:00,
2013-03-04 10:19:00,60.8,36.3,30.01,East,96,1.0,10.0,40,0.00,,---,0.00,VWS V14.01,2013-03-04 18:19:00,
2013-03-04 10:24:00,60.8,36.3,30.01,ENE,70,6.0,10.0,40,0.00,,---,0.00,VWS V14.01,2013-03-04 18:24:00,
2013-03-04 10:29:00,61.0,36.5,30.01,NNW,338,3.0,10.0,40,0.00,,---,0.00,VWS V14.01,2013-03-04 18:29:00,
2013-03-04 10:30:00,61.0,36.5,30.01,ESE,108,1.0,10.0,40,0.00,,---,0.00,VWS V14.01,2013-03-04 18:30:00,
2013-03-04 10:33:00,61.2,36.7,30.01,East,86,0.0,10.0,40,0.00,,---,0.00,VWS V14.01,2013-03-04 18:33:00,
2013-03-04 10:38:00,61.9,36.7,30.01,NE,46,7.0,10.0,39,0.00,,---,0.00,VWS V14.01,2013-03-04 18:38:00,
2013-03-04 10:41:00,62.0,36.1,30.01,NE,40,8.0,10.0,38,0.00,,---,0.00,VWS V14.01,2013-03-04 18:41:00,
2013-03-04 10:46:00,61.9,36.0,30.01,ESE,121,1.0,10.0,38,0.00,,---,0.00,VWS V14.01,2013-03-04 18:46:00,
2013-03-04 10:49:00,62.2,36.3,30.01,North,10,1.0,10.0,38,0.00,,---,0.00,VWS V14.01,2013-03-04 18:49:00,
2013-03-04 10:54:00,62.6,36.7,30.00,WNW,292,4.0,10.0,38,0.00,,---,0.00,VWS V14.01,2013-03-04 18:54:00,
2013-03-04 10:59:00,62.9,35.6,30.00,NE,42,9.0,9.0,36,0.00,,---,0.00,VWS V14.01,2013-03-04 18:59:00,
2013-03-04 11:04:00,62.3,34.3,30.00,NE,48,7.0,13.0,35,0.00,,---,0.00,VWS V14.01,2013-03-04 19:04:00,
2013-03-04 11:09:00,62.3,35.0,30.00,East,91,8.0,13.0,36,0.00,,---,0.00,VWS V14.01,2013-03-04 19:09:00,
2013-03-04 11:14:00,62.5,34.5,30.00,NE,36,8.0,13.0,35,0.00,,---,0.00,VWS V14.01,2013-03-04 19:14:00,
2013-03-04 11:19:00,62.4,34.4,30.00,NE,50,6.0,13.0,35,0.00,,---,0.00,VWS V14.01,2013-03-04 19:19:00,
2013-03-04 11:24:00,62.6,35.3,30.00,North,352,2.0,13.0,36,0.00,,---,0.00,VWS V14.01,2013-03-04 19:24:00,
2013-03-04 11:29:00,62.9,35.6,30.00,WNW,293,3.0,13.0,36,0.00,,---,0.00,VWS V14.01,2013-03-04 19:29:00,
2013-03-04 11:34:00,63.4,35.3,30.00,ENE,73,4.0,13.0,35,0.00,,---,0.00,VWS V14.01,2013-03-04 19:34:00,
2013-03-04 11:40:00,63.4,34.6,30.00,North,356,4.0,13.0,34,0.00,,---,0.00,VWS V14.01,2013-03-04 19:40:00,
2013-03-04 11:45:00,63.4,35.3,30.00,ENE,71,0.0,13.0,35,0.00,,---,0.00,VWS V14.01,2013-03-04 19:45:00,
2013-03-04 11:50:00,64.4,35.5,29.99,ESE,108,8.0,13.0,34,0.00,,---,0.00,VWS V14.01,2013-03-04 19:50:00,
2013-03-04 11:55:00,64.0,35.1,29.99,ESE,121,1.0,13.0,34,0.00,,---,0.00,VWS V14.01,2013-03-04 19:55:00,
2013-03-04 12:00:00,64.4,35.5,29.99,East,90,6.0,7.0,34,0.00,,---,0.00,VWS V14.01,2013-03-04 20:00:00,
2013-03-04 12:05:00,63.9,35.0,29.99,NE,51,4.0,8.0,34,0.00,,---,0.00,VWS V14.01,2013-03-04 20:05:00,
2013-03-04 12:10:00,64.5,35.5,29.99,SW,214,3.0,8.0,34,0.00,,---,0.00,VWS V14.01,2013-03-04 20:10:00,
2013-03-04 12:15:00,65.1,35.3,29.98,SW,222,2.0,8.0,33,0.00,,---,0.00,VWS V14.01,2013-03-04 20:15:00,
2013-03-04 12:20:00,66.2,35.5,29.98,NNE,30,5.0,8.0,32,0.00,,---,0.00,VWS V14.01,2013-03-04 20:20:00,
2013-03-04 12:25:00,65.4,34.8,29.98,SE,135,3.0,8.0,32,0.00,,---,0.00,VWS V14.01,2013-03-04 20:25:00,
2013-03-04 12:30:00,65.5,35.7,29.98,NE,42,0.0,8.0,33,0.00,,---,0.00,VWS V14.01,2013-03-04 20:30:00,
2013-03-04 12:35:00,65.4,34.8,29.98,SW,226,2.0,8.0,32,0.00,,---,0.00,VWS V14.01,2013-03-04 20:35:00,
2013-03-04 12:40:00,65.5,35.7,29.98,WNW,294,1.0,8.0,33,0.00,,---,0.00,VWS V14.01,2013-03-04 20:40:00,
2013-03-04 12:45:00,66.2,35.5,29.98,East,80,4.0,9.0,32,0.00,,---,0.00,VWS V14.01,2013-03-04 20:45:00,
2013-03-04 12:50:00,66.2,34.7,29.97,NE,46,10.0,11.0,31,0.00,,---,0.00,VWS V14.01,2013-03-04 20:50:00,
2013-03-04 12:55:00,65.7,35.1,29.97,SSW,212,3.0,11.0,32,0.00,,---,0.00,VWS V14.01,2013-03-04 20:55:00,
2013-03-04 13:00:00,66.7,35.1,29.97,ENE,65,5.0,5.0,31,0.00,,---,0.00,VWS V14.01,2013-03-04 21:00:00,
2013-03-04 13:05:00,67.1,35.5,29.97,SE,129,3.0,5.0,31,0.00,,---,0.00,VWS V14.01,2013-03-04 21:05:00,
2013-03-04 13:10:00,66.9,35.3,29.96,South,184,7.0,8.0,31,0.00,,---,0.00,VWS V14.01,2013-03-04 21:10:00,
2013-03-04 13:15:00,67.1,35.5,29.96,South,191,2.0,8.0,31,0.00,,---,0.00,VWS V14.01,2013-03-04 21:15:00,
2013-03-04 13:20:00,68.2,35.6,29.96,ESE,113,1.0,8.0,30,0.00,,---,0.00,VWS V14.01,2013-03-04 21:20:00,
2013-03-04 13:25:00,68.6,35.1,29.96,SSW,205,2.0,8.0,29,0.00,,---,0.00,VWS V14.01,2013-03-04 21:25:00,
2013-03-04 13:30:00,67.9,34.5,29.96,WNW,283,5.0,8.0,29,0.00,,---,0.00,VWS V14.01,2013-03-04 21:30:00,
2013-03-04 13:35:00,66.9,33.6,29.95,NNW,330,3.0,8.0,29,0.00,,---,0.00,VWS V14.01,2013-03-04 21:35:00,
2013-03-04 13:40:00,66.8,34.4,29.95,WSW,246,4.0,8.0,30,0.00,,---,0.00,VWS V14.01,2013-03-04 21:40:00,
2013-03-04 13:45:00,66.7,33.5,29.95,WNW,288,3.0,8.0,29,0.00,,---,0.00,VWS V14.01,2013-03-04 21:45:00,
2013-03-04 13:50:00,66.7,34.3,29.95,NW,306,2.0,8.0,30,0.00,,---,0.00,VWS V14.01,2013-03-04 21:50:00,
2013-03-04 13:55:00,66.9,33.6,29.95,NW,310,1.0,8.0,29,0.00,,---,0.00,VWS V14.01,2013-03-04 21:55:00,
2013-03-04 14:00:00,67.5,34.2,29.95,SSE,159,1.0,2.0,29,0.00,,---,0.00,VWS V14.01,2013-03-04 22:00:00,
2013-03-04 14:05:00,68.6,33.3,29.95,SE,143,1.0,4.0,27,0.00,,---,0.00,VWS V14.01,2013-03-04 22:05:00,
2013-03-04 14:10:00,69.0,32.7,29.95,North,349,2.0,8.0,26,0.00,,---,0.00,VWS V14.01,2013-03-04 22:10:00,
2013-03-04 14:15:00,68.4,33.1,29.95,North,11,3.0,8.0,27,0.00,,---,0.00,VWS V14.01,2013-03-04 22:15:00,
2013-03-04 14:20:00,68.5,33.2,29.95,NNW,348,1.0,8.0,27,0.00,,---,0.00,VWS V14.01,2013-03-04 22:20:00,
2013-03-04 14:25:00,69.1,33.7,29.95,NE,42,4.0,8.0,27,0.00,,---,0.00,VWS V14.01,2013-03-04 22:25:00,
2013-03-04 14:31:00,69.2,31.9,29.94,ESE,105,0.0,8.0,25,0.00,,---,0.00,VWS V14.01,2013-03-04 22:31:00,
2013-03-04 14:36:00,69.4,33.1,29.94,West,276,3.0,8.0,26,0.00,,---,0.00,VWS V14.01,2013-03-04 22:36:00,
2013-03-04 14:41:00,69.1,32.8,29.94,NW,311,3.0,8.0,26,0.00,,---,0.00,VWS V14.01,2013-03-04 22:41:00,
2013-03-04 14:46:00,69.2,31.9,29.94,NNE,33,0.0,8.0,25,0.00,,---,0.00,VWS V14.01,2013-03-04 22:46:00,
2013-03-04 14:51:00,68.9,31.7,29.94,ENE,77,3.0,9.0,25,0.00,,---,0.00,VWS V14.01,2013-03-04 22:51:00,
2013-03-04 14:56:00,68.7,32.5,29.94,ESE,120,5.0,9.0,26,0.00,,---,0.00,VWS V14.01,2013-03-04 22:56:00,
2013-03-04 15:01:00,69.2,32.9,29.94,ESE,117,1.0,3.0,26,0.00,,---,0.00,VWS V14.01,2013-03-04 23:01:00,
2013-03-04 15:06:00,69.6,32.2,29.94,East,81,2.0,5.0,25,0.00,,---,0.00,VWS V14.01,2013-03-04 23:06:00,
2013-03-04 15:11:00,69.8,32.4,29.94,NNE,20,1.0,7.0,25,0.00,,---,0.00,VWS V14.01,2013-03-04 23:11:00,
2013-03-04 15:16:00,69.0,32.7,29.94,NNE,30,1.0,9.0,26,0.00,,---,0.00,VWS V14.01,2013-03-04 23:16:00,
2013-03-04 15:21:00,69.4,32.1,29.94,ENE,72,5.0,9.0,25,0.00,,---,0.00,VWS V14.01,2013-03-04 23:21:00,
2013-03-04 15:26:00,69.5,32.2,29.94,East,79,4.0,9.0,25,0.00,,---,0.00,VWS V14.01,2013-03-04 23:26:00,
2013-03-04 15:31:00,69.4,32.1,29.94,ESE,121,2.0,9.0,25,0.00,,---,0.00,VWS V14.01,2013-03-04 23:31:00,
2013-03-04 15:36:00,70.4,32.9,29.94,East,94,3.0,9.0,25,0.00,,---,0.00,VWS V14.01,2013-03-04 23:36:00,
2013-03-04 15:41:00,70.3,32.8,29.94,SW,217,1.0,9.0,25,0.00,,---,0.00,VWS V14.01,2013-03-04 23:41:00,
2013-03-04 15:46:00,71.0,31.4,29.94,NNE,25,3.0,9.0,23,0.00,,---,0.00,VWS V14.01,2013-03-04 23:46:00,
2013-03-04 15:51:00,70.4,31.9,29.94,WNW,294,3.0,9.0,24,0.00,,---,0.00,VWS V14.01,2013-03-04 23:51:00,
2013-03-04 15:56:00,70.2,31.8,29.94,North,354,4.0,9.0,24,0.00,,---,0.00,VWS V14.01,2013-03-04 23:56:00,
2013-03-04 16:01:00,70.0,31.6,29.94,NNW,337,4.0,6.0,24,0.00,,---,0.00,VWS V14.01,2013-03-05 00:01:00,
2013-03-04 16:06:00,69.9,30.5,29.94,NE,35,3.0,6.0,23,0.00,,---,0.00,VWS V14.01,2013-03-05 00:06:00,
2013-03-04 16:11:00,69.7,30.3,29.94,WNW,303,1.0,6.0,23,0.00,,---,0.00,VWS V14.01,2013-03-05 00:11:00,
2013-03-04 16:16:00,70.1,31.7,29.94,West,274,1.0,6.0,24,0.00,,---,0.00,VWS V14.01,2013-03-05 00:16:00,
2013-03-04 16:21:00,70.4,30.9,29.94,NNW,342,3.0,6.0,23,0.00,,---,0.00,VWS V14.01,2013-03-05 00:21:00,
2013-03-04 16:26:00,69.7,31.3,29.94,NNE,33,0.0,6.0,24,0.00,,---,0.00,VWS V14.01,2013-03-05 00:26:00,
2013-03-04 16:32:00,70.1,32.7,29.94,SE,127,0.0,6.0,25,0.00,,---,0.00,VWS V14.01,2013-03-05 00:32:00,
2013-03-04 16:37:00,70.0,32.6,29.94,NNW,345,3.0,6.0,25,0.00,,---,0.00,VWS V14.01,2013-03-05 00:37:00,
2013-03-04 16:42:00,69.8,32.4,29.94,NNE,15,2.0,6.0,25,0.00,,---,0.00,VWS V14.01,2013-03-05 00:42:00,
2013-03-04 16:47:00,70.3,33.8,29.95,SW,219,2.0,6.0,26,0.00,,---,0.00,VWS V14.01,2013-03-05 00:47:00,
2013-03-04 16:52:00,69.3,43.3,29.95,SW,224,5.0,12.0,39,0.00,,---,0.00,VWS V14.01,2013-03-05 00:52:00,
2013-03-04 16:57:00,68.2,44.3,29.95,SSW,196,5.0,12.0,42,0.00,,---,0.00,VWS V14.01,2013-03-05 00:57:00,
2013-03-04 17:02:00,67.6,44.3,29.95,SW,214,5.0,9.0,43,0.00,,---,0.00,VWS V14.01,2013-03-05 01:02:00,
2013-03-04 17:07:00,66.8,44.2,29.95,SSW,207,9.0,16.0,44,0.00,,---,0.00,VWS V14.01,2013-03-05 01:07:00,
2013-03-04 17:12:00,66.5,44.5,29.95,SW,222,6.0,16.0,45,0.00,,---,0.00,VWS V14.01,2013-03-05 01:12:00,
2013-03-04 17:17:00,66.1,44.2,29.95,SSW,207,8.0,16.0,45,0.00,,---,0.00,VWS V14.01,2013-03-05 01:17:00,
2013-03-04 17:22:00,65.7,44.4,29.95,SSW,212,7.0,16.0,46,0.00,,---,0.00,VWS V14.01,2013-03-05 01:22:00,
2013-03-04 17:27:00,65.3,44.6,29.95,SW,225,3.0,16.0,47,0.00,,---,0.00,VWS V14.01,2013-03-05 01:27:00,
2013-03-04 17:32:00,64.9,44.2,29.95,SSW,212,5.0,16.0,47,0.00,,---,0.00,VWS V14.01,2013-03-05 01:32:00,
2013-03-04 17:37:00,64.5,44.4,29.95,SW,221,3.0,16.0,48,0.00,,---,0.00,VWS V14.01,2013-03-05 01:37:00,
2013-03-04 17:42:00,64.1,44.0,29.95,SW,222,6.0,16.0,48,0.00,,---,0.00,VWS V14.01,2013-03-05 01:42:00,
2013-03-04 17:47:00,63.8,43.8,29.96,WSW,243,7.0,16.0,48,0.00,,---,0.00,VWS V14.01,2013-03-05 01:47:00,
2013-03-04 17:52:00,63.5,44.0,29.96,SSW,200,6.0,16.0,49,0.00,,---,0.00,VWS V14.01,2013-03-05 01:52:00,
2013-03-04 17:57:00,63.1,44.2,29.96,SSW,200,6.0,16.0,50,0.00,,---,0.00,VWS V14.01,2013-03-05 01:57:00,
2013-03-04 18:02:00,62.7,44.3,29.96,SSW,194,4.0,6.0,51,0.00,,---,0.00,VWS V14.01,2013-03-05 02:02:00,
2013-03-04 18:07:00,62.4,44.0,29.96,SW,214,7.0,9.0,51,0.00,,---,0.00,VWS V14.01,2013-03-05 02:07:00,
2013-03-04 18:12:00,62.2,43.9,29.96,SW,232,7.0,9.0,51,0.00,,---,0.00,VWS V14.01,2013-03-05 02:12:00,
2013-03-04 18:17:00,61.8,43.5,29.96,South,191,2.0,9.0,51,0.00,,---,0.00,VWS V14.01,2013-03-05 02:17:00,
2013-03-04 18:22:00,61.6,43.8,29.96,SSW,205,2.0,9.0,52,0.00,,---,0.00,VWS V14.01,2013-03-05 02:22:00,
2013-03-04 18:27:00,61.5,43.2,29.96,SSW,197,4.0,9.0,51,0.00,,---,0.00,VWS V14.01,2013-03-05 02:27:00,
2013-03-04 18:32:00,61.4,43.1,29.96,SSW,204,1.0,9.0,51,0.00,,---,0.00,VWS V14.01,2013-03-05 02:32:00,
2013-03-04 18:37:00,61.4,42.6,29.96,South,181,0.0,9.0,50,0.00,,---,0.00,VWS V14.01,2013-03-05 02:37:00,
2013-03-04 18:42:00,61.2,42.4,29.96,South,169,5.0,9.0,50,0.00,,---,0.00,VWS V14.01,2013-03-05 02:42:00,
2013-03-04 18:47:00,61.1,42.3,29.97,SW,224,2.0,9.0,50,0.00,,---,0.00,VWS V14.01,2013-03-05 02:47:00,
2013-03-04 18:52:00,60.9,42.7,29.96,SW,222,2.0,9.0,51,0.00,,---,0.00,VWS V14.01,2013-03-05 02:52:00,
2013-03-04 18:57:00,60.7,43.0,29.97,SSW,212,2.0,9.0,52,0.00,,---,0.00,VWS V14.01,2013-03-05 02:57:00,
2013-03-04 19:02:00,60.5,42.8,29.97,SW,221,2.0,5.0,52,0.00,,---,0.00,VWS V14.01,2013-03-05 03:02:00,
2013-03-04 19:07:00,60.5,42.8,29.97,SSW,207,5.0,7.0,52,0.00,,---,0.00,VWS V14.01,2013-03-05 03:07:00,
2013-03-04 19:12:00,60.5,42.8,29.97,SW,221,5.0,7.0,52,0.00,,---,0.00,VWS V14.01,2013-03-05 03:12:00,
2013-03-04 19:17:00,60.4,42.7,29.97,SW,230,4.0,7.0,52,0.00,,---,0.00,VWS V14.01,2013-03-05 03:17:00,
2013-03-04 19:22:00,60.3,42.6,29.97,SSW,212,0.0,7.0,52,0.00,,---,0.00,VWS V14.01,2013-03-05 03:22:00,
2013-03-04 19:27:00,60.1,42.9,29.97,SSE,162,0.0,7.0,53,0.00,,---,0.00,VWS V14.01,2013-03-05 03:27:00,
2013-03-04 19:33:00,59.9,42.7,29.97,SSW,207,1.0,7.0,53,0.00,,---,0.00,VWS V14.01,2013-03-05 03:33:00,
2013-03-04 19:38:00,59.7,42.6,29.96,SSE,162,0.0,7.0,53,0.00,,---,0.00,VWS V14.01,2013-03-05 03:38:00,
2013-03-04 19:43:00,59.2,42.1,29.97,NE,37,0.0,7.0,53,0.00,,---,0.00,VWS V14.01,2013-03-05 03:43:00,
2013-03-04 19:48:00,58.6,42.0,29.97,NE,53,1.0,7.0,54,0.00,,---,0.00,VWS V14.01,2013-03-05 03:48:00,
2013-03-04 19:53:00,58.0,41.9,29.97,ENE,70,0.0,7.0,55,0.00,,---,0.00,VWS V14.01,2013-03-05 03:53:00,
2013-03-04 19:58:00,57.6,42.0,29.97,ENE,68,1.0,7.0,56,0.00,,---,0.00,VWS V14.01,2013-03-05 03:58:00,
2013-03-04 20:03:00,57.6,42.0,29.97,ENE,68,0.0,2.0,56,0.00,,---,0.00,VWS V14.01,2013-03-05 04:03:00,
2013-03-04 20:08:00,57.2,42.1,29.97,ENE,68,0.0,2.0,57,0.00,,---,0.00,VWS V14.01,2013-03-05 04:08:00,
2013-03-04 20:13:00,56.9,41.8,29.97,ENE,68,0.0,2.0,57,0.00,,---,0.00,VWS V14.01,2013-03-05 04:13:00,
2013-03-04 20:18:00,56.7,42.1,29.97,ENE,68,0.0,2.0,58,0.00,,---,0.00,VWS V14.01,2013-03-05 04:18:00,
2013-03-04 20:23:00,56.6,42.0,29.97,SW,217,0.0,2.0,58,0.00,,---,0.00,VWS V14.01,2013-03-05 04:23:00,
2013-03-04 20:28:00,57.0,41.9,29.98,SSW,207,0.0,2.0,57,0.00,,---,0.00,VWS V14.01,2013-03-05 04:28:00,
2013-03-04 20:33:00,57.1,42.0,29.98,West,270,2.0,2.0,57,0.00,,---,0.00,VWS V14.01,2013-03-05 04:33:00,
2013-03-04 20:38:00,57.4,42.3,29.98,NW,307,2.0,4.0,57,0.00,,---,0.00,VWS V14.01,2013-03-05 04:38:00,
2013-03-04 20:43:00,56.0,41.5,29.99,NW,314,3.0,4.0,58,0.00,,---,0.00,VWS V14.01,2013-03-05 04:43:00,
2013-03-04 20:48:00,56.9,42.7,29.99,WNW,297,2.0,5.0,59,0.00,,---,0.00,VWS V14.01,2013-03-05 04:48:00,
2013-03-04 20:53:00,57.6,42.0,29.99,NE,54,0.0,5.0,56,0.00,,---,0.00,VWS V14.01,2013-03-05 04:53:00,
2013-03-04 20:58:00,57.4,42.3,29.99,NE,41,0.0,5.0,57,0.00,,---,0.00,VWS V14.01,2013-03-05 04:58:00,
2013-03-04 21:00:00,57.3,42.7,29.99,NNE,27,2.0,2.0,58,0.00,,---,0.00,VWS V14.01,2013-03-05 05:00:00,
2013-03-04 21:01:00,57.3,42.2,29.99,NNE,28,2.0,2.0,57,0.00,,---,0.00,VWS V14.01,2013-03-05 05:01:00,
2013-03-04 21:02:00,57.2,42.1,29.99,NNE,27,2.0,3.0,57,0.00,,---,0.00,VWS V14.01,2013-03-05 05:02:00,
2013-03-04 21:07:00,57.0,41.9,29.99,NNE,28,1.0,3.0,57,0.00,,---,0.00,VWS V14.01,2013-03-05 05:07:00,
2013-03-04 21:11:00,56.8,41.8,29.99,East,94,2.0,3.0,57,0.00,,---,0.00,VWS V14.01,2013-03-05 05:11:00,
2013-03-04 21:16:00,55.6,41.1,29.99,East,90,2.0,3.0,58,0.00,,---,0.00,VWS V14.01,2013-03-05 05:16:00,
2013-03-04 21:21:00,53.9,40.8,29.99,ENE,67,1.0,4.0,61,0.00,,---,0.00,VWS V14.01,2013-03-05 05:21:00,
2013-03-04 21:26:00,53.2,40.5,29.99,East,79,0.0,4.0,62,0.00,,---,0.00,VWS V14.01,2013-03-05 05:26:00,
2013-03-04 21:31:00,52.8,40.6,29.99,East,85,1.0,4.0,63,0.00,,---,0.00,VWS V14.01,2013-03-05 05:31:00,
2013-03-04 21:36:00,52.5,40.7,29.99,East,101,2.0,4.0,64,0.00,,---,0.00,VWS V14.01,2013-03-05 05:36:00,
2013-03-04 21:41:00,52.4,41.0,29.99,East,94,2.0,4.0,65,0.00,,---,0.00,VWS V14.01,2013-03-05 05:41:00,
2013-03-04 21:46:00,52.2,40.8,29.99,East,81,2.0,4.0,65,0.00,,---,0.00,VWS V14.01,2013-03-05 05:46:00,
2013-03-04 21:51:00,52.2,40.8,29.99,East,80,1.0,4.0,65,0.00,,---,0.00,VWS V14.01,2013-03-05 05:51:00,
2013-03-04 21:56:00,52.1,41.1,29.99,East,93,0.0,4.0,66,0.00,,---,0.00,VWS V14.01,2013-03-05 05:56:00,
2013-03-04 22:01:00,52.1,41.1,29.99,ESE,115,0.0,0.0,66,0.00,,---,0.00,VWS V14.01,2013-03-05 06:01:00,
2013-03-04 22:06:00,51.9,40.9,30.00,SSE,164,0.0,2.0,66,0.00,,---,0.00,VWS V14.01,2013-03-05 06:06:00,
2013-03-04 22:11:00,51.8,41.2,30.00,SSE,150,1.0,2.0,67,0.00,,---,0.00,VWS V14.01,2013-03-05 06:11:00,
2013-03-04 22:16:00,52.1,41.5,30.00,SSE,148,2.0,2.0,67,0.00,,---,0.00,VWS V14.01,2013-03-05 06:16:00,
2013-03-04 22:21:00,52.4,41.8,30.00,SSE,158,2.0,3.0,67,0.00,,---,0.00,VWS V14.01,2013-03-05 06:21:00,
2013-03-04 22:26:00,52.5,41.5,30.00,SE,143,3.0,4.0,66,0.00,,---,0.00,VWS V14.01,2013-03-05 06:26:00,
2013-03-04 22:31:00,52.7,42.5,30.00,SSW,194,1.0,5.0,68,0.00,,---,0.00,VWS V14.01,2013-03-05 06:31:00,
2013-03-04 22:36:00,53.3,42.2,30.00,South,188,3.0,5.0,66,0.00,,---,0.00,VWS V14.01,2013-03-05 06:36:00,
2013-03-04 22:41:00,53.4,41.9,30.00,East,91,2.0,5.0,65,0.00,,---,0.00,VWS V14.01,2013-03-05 06:41:00,
2013-03-04 22:46:00,53.4,42.7,30.00,SW,233,3.0,5.0,67,0.00,,---,0.00,VWS V14.01,2013-03-05 06:46:00,
2013-03-04 22:51:00,54.4,44.1,30.00,South,183,4.0,8.0,68,0.00,,---,0.00,VWS V14.01,2013-03-05 06:51:00,
2013-03-04 22:56:00,55.1,44.0,30.00,SE,136,1.0,9.0,66,0.00,,---,0.00,VWS V14.01,2013-03-05 06:56:00,
2013-03-04 23:01:00,55.5,43.9,30.00,South,188,4.0,7.0,65,0.00,,---,0.00,VWS V14.01,2013-03-05 07:01:00,
2013-03-04 23:06:00,55.6,43.6,30.00,SW,224,7.0,8.0,64,0.00,,---,0.00,VWS V14.01,2013-03-05 07:06:00,
2013-03-04 23:11:00,55.8,43.4,30.00,SSE,153,2.0,8.0,63,0.00,,---,0.00,VWS V14.01,2013-03-05 07:11:00,
2013-03-04 23:17:00,55.7,43.3,30.00,SW,233,2.0,8.0,63,0.00,,---,0.00,VWS V14.01,2013-03-05 07:17:00,
2013-03-04 23:22:00,55.6,43.6,29.99,West,260,3.0,8.0,64,0.00,,---,0.00,VWS V14.01,2013-03-05 07:22:00,
2013-03-04 23:27:00,55.8,43.4,30.00,SW,225,4.0,8.0,63,0.00,,---,0.00,VWS V14.01,2013-03-05 07:27:00,
2013-03-04 23:32:00,56.1,42.4,30.00,South,184,2.0,8.0,60,0.00,,---,0.00,VWS V14.01,2013-03-05 07:32:00,
2013-03-04 23:37:00,56.0,42.3,30.00,SSE,166,0.0,8.0,60,0.00,,---,0.00,VWS V14.01,2013-03-05 07:37:00,
2013-03-04 23:42:00,55.7,42.0,30.00,SW,226,0.0,8.0,60,0.00,,---,0.00,VWS V14.01,2013-03-05 07:42:00,
2013-03-04 23:47:00,55.7,42.0,30.00,SSE,157,2.0,8.0,60,0.00,,---,0.00,VWS V14.01,2013-03-05 07:47:00,
2013-03-04 23:52:00,55.4,41.3,30.00,NE,54,3.0,8.0,59,0.00,,---,0.00,VWS V14.01,2013-03-05 07:52:00,
2013-03-04 23:57:00,55.2,41.1,30.00,WSW,248,5.0,8.0,59,0.00,,---,0.00,VWS V14.01,2013-03-05 07:57:00,